This is the latest recevied weather packets stored in our database for station/object IW7DVM-13. If no packets are shown the sender has not sent any weather packets the latest 10 day(s).
| Time | Temp. | Humidity | Pressure | Rain* | Wind** | Luminosity | Snow |
|---|---|---|---|---|---|---|---|
| 1787388003 | 31.11° C | 58% | 1007.9 hPa | 0 mm | - | - | - |
| 1787387703 | 31.67° C | 59% | 1007.9 hPa | 0 mm | - | - | - |
| 1787387403 | 31.11° C | 59% | 1008 hPa | 0 mm | - | - | - |
| 1787387103 | 30.56° C | 59% | 1008.1 hPa | 0 mm | - | - | - |
| 1787386803 | 30.56° C | 59% | 1008.1 hPa | 0 mm | - | - | - |
| 1787386503 | 30.56° C | 60% | 1008.2 hPa | 0 mm | - | - | - |
| 1787386203 | 30.56° C | 60% | 1007.9 hPa | 0 mm | - | - | - |
| 1787385903 | 30.56° C | 60% | 1008 hPa | 0 mm | - | - | - |
| 1787385603 | 30.56° C | 59% | 1008.1 hPa | 0 mm | - | - | - |
| 1787385303 | 30.56° C | 59% | 1008 hPa | 0 mm | - | - | - |
| 1787385003 | 30.56° C | 59% | 1008 hPa | 0 mm | - | - | - |
| 1787384703 | 30.56° C | 58% | 1008.1 hPa | 0 mm | - | - | - |
| 1787384403 | 30.56° C | 59% | 1008 hPa | 0 mm | - | - | - |
| 1787384103 | 30° C | 59% | 1008 hPa | 0 mm | - | - | - |
| 1787383803 | 30.56° C | 59% | 1008 hPa | 0 mm | - | - | - |
| 1787383503 | 30.56° C | 59% | 1007.8 hPa | 0 mm | - | - | - |
| 1787383203 | 30.56° C | 58% | 1008 hPa | 0 mm | - | - | - |
| 1787382903 | 31.11° C | 57% | 1008 hPa | 0 mm | - | - | - |
| 1787382603 | 31.11° C | 54% | 1007.9 hPa | 0 mm | - | - | - |
| 1787382303 | 31.11° C | 54% | 1007.9 hPa | 0 mm | - | - | - |
| 1787382003 | 31.11° C | 56% | 1008 hPa | 0 mm | - | - | - |
| 1787381703 | 30.56° C | 56% | 1007.9 hPa | 0 mm | - | - | - |
| 1787381403 | 30.56° C | 56% | 1007.8 hPa | 0 mm | - | - | - |
| 1787381103 | 30.56° C | 57% | 1007.9 hPa | 0 mm | - | - | - |
| 1787380803 | 30° C | 58% | 1007.9 hPa | 0 mm | - | - | - |
* Rain latest hour (hover to see other rain measurements)
** Current wind speed in m/s (hover to see current wind gust speed)